Regional Weather Roundup
Issued by NWS

Home | Current Version | Previous Version | Graphics & Text | Print | Product List | Glossary On
Versions: 1 2 3 4 5 6 7 8 9 10 11 12 13 14 15 16 17 18 19 20 21 22 23 24 25 26 27 28 29 30 31 32 33 34 35 36 37 38 39 40 41 42 43 44 45 46 47 48 49 50
000
ASUS43 KFSD 210210
RWRSD

WEATHER ROUNDUP FOR SOUTH DAKOTA
NATIONAL WEATHER SERVICE SIOUX FALLS SD
800 PM CST TUE FEB 20 2018

NOTE: "FAIR" INDICATES FEW OR NO CLOUDS BELOW 12,000 FEET WITH NO
SIGNIFICANT WEATHER AND/OR OBSTRUCTIONS TO VISIBILITY.


SDZ001>005-009-010-012>017-210300-
NORTHWEST AND NORTH CENTRAL SOUTH DAKOTA

CITY           SKY/WX    TMP DP  RH WIND       PRES   REMARKS
BUFFALO          N/A     -4 -12  68 W10       30.09R WCI -21
FAITH            N/A     -5 -10  79 SW8       30.21R WCI -20
MOBRIDGE       CLEAR      2  -7  66 W7        30.25R WCI -11
$$

SDZ012>016-024>037-041>051-057-063-072>074-210300-
SOUTHWEST AND SOUTH CENTRAL SOUTH DAKOTA

CITY           SKY/WX    TMP DP  RH WIND       PRES   REMARKS
RAPID CTY ARPT CLEAR     -9 -12  87 CALM      30.19R
PIERRE         CLEAR      1  -5  75 W12       30.32R WCI -16
CUSTER         CLEAR      0 -11  59 W5        29.97R WCI -10
ELLSWORTH AFB  CLEAR     -3 -10  71 CALM      30.17R
PHILIP         PTCLDY    -6 -10  83 W8        30.30R WCI -21
PINE RIDGE     PTCLDY    -7 -13  75 CALM      30.21R
SPEARFISH        N/A      3  -9  55 W8        30.12R WCI -10
WINNER         FAIR      -1  -7  75 SW6       30.33R WCI -13
$$

SDZ004>011-016>023-039-040-210300-
NORTHEAST SOUTH DAKOTA

CITY           SKY/WX    TMP DP  RH WIND       PRES   REMARKS
ABERDEEN       CLEAR     -3  -8  79 W9        30.31R WCI -19
WATERTOWN      CLOUDY    -1  -5  82 W10       30.26R WCI -17
BROOKINGS      CLEAR      3  -1  83 NW12      30.29R WCI -13
SISSETON         N/A      3  -5  69 W5        30.28R WCI  -6
$$

SDZ017-020-022-023-036>040-048>070-210300-
SOUTHEAST SOUTH DAKOTA

CITY           SKY/WX    TMP DP  RH WIND       PRES   REMARKS
SIOUX FALLS    CLEAR      5  -1  76 NW7       30.32R WCI  -7
HURON          CLEAR      3  -2  79 W8        30.35R WCI -10
CHAMBERLAIN    CLEAR      0  -4  81 SW8       30.36R WCI -14
MITCHELL       CLEAR      5  -1  76 W9        30.38R WCI  -9
YANKTON        CLEAR      6   0  76 W9        30.37S WCI  -8
$$

ABBREVIATIONS USED IN REMARKS
   TC - TEMPERATURE IN CELSIUS
  WCI - WIND CHILL INDEX
   HX - HEAT INDEX
  VSB - VISIBILITY




USA.gov is the U.S. government's official web portal to all federal, state and local government web resources and services.